Location: Dennis Manor
(64.8292°N, 147.5397°W)
Time: 17:03:23
(UTC+00:00)

Envisat - Pass Details

Date: 05 November 2020
Orbit: 764 x 766 km, 98.1° (Epoch: 25 November)

Event Time Altitude Azimuth Distance (km) Brightness Sun altitude
Rises 16:19:45 0° 19° (NNE) 3,249 6.3 -9.6°
Reaches altitude 10° 16:22:05 10° 21° (NNE) 2,319 5.5 -9.4°
Maximum altitude 16:27:12 78° 108° (ESE) 792 3.2 -8.9°
Drops below altitude 10° 16:32:18 10° 195° (SSW) 2,304 5.6 -8.4°
Sets 16:34:36 0° 197° (SSW) 3,227 6.3 -8.1°
